DLR-TUBSAT

Last updated on Tue Oct 15 2024 00:02:23 GMT+0000 (Coordinated Universal Time)

1 25757U 99029B 24287.48698865 .00000783 00000+0 20513-3 0 9993 2 25757 98.6030 254.1221 0015372 54.0974 306.1645 14.52046231344563
UTC large
Height (km)
Speed (km/s)
/
Latitude / Longitude
Inclination (degrees)
Orbital Period (minutes)
Azimuth
Elevation
Range (km)
Doppler Factor

Next 0 passes for location: London (51.5072 / 0.1276)

Sorry there are no passes over London.